Stations météo

réclame
Mon MeteoGroup
Oostende Airport, Belgique (6407): Température de l'air & dewpoint: 13.06.2019 11:00:00 - 19.06.2019 11:00:00 (CEST)Oostende Airport, Belgique (6407): Vitesse du vent & gusts: 13.06.2019 11:00:00 - 19.06.2019 11:00:00 (CEST)Oostende Airport, Belgique (6407): Direction du vent: 13.06.2019 11:00:00 - 19.06.2019 11:00:00 (CEST)Oostende Airport, Belgique (6407): reduced air pressure: 13.06.2019 11:00:00 - 19.06.2019 11:00:00 (CEST)Oostende Airport, Belgique (6407): visibility: 13.06.2019 11:00:00 - 19.06.2019 11:00:00 (CEST)
Date & Time tt [°C] td [°C] ff [km/h] ff [knt] fx [km/h] fx [knt] dd ppp [hPa] vv [km]
19.06.2019 11:00:00 16,7 14,2 4 2 - - - 1007,9 10
19.06.2019 10:00:00 17,2 14,8 35 19 54 29 W 1008,5 10
19.06.2019 09:00:00 17,0 14,6 11 6 25 14 SE 1005,9 10
19.06.2019 08:00:00 15,6 13,7 16 9 - - E 1005,6 10
19.06.2019 07:00:00 15,3 13,7 13 7 29 16 E 1006,8 10
19.06.2019 06:00:00 16,1 13,5 15 8 29 16 N 1007,5 7
19.06.2019 05:00:00 15,9 12,9 13 7 - - N 1008,2 10
19.06.2019 04:00:00 17,3 8,1 29 16 40 21 WNW 1010,0 8
19.06.2019 03:00:00 16,5 14,2 9 5 14 8 ESE 1008,3 8
19.06.2019 02:00:00 16,4 14,1 13 7 - - E 1008,7 9
19.06.2019 01:00:00 15,9 13,6 13 7 22 12 E 1009,4 10
19.06.2019 00:00:00 16,5 13,5 15 8 22 12 E 1010,3 10
18.06.2019 23:00:00 16,7 13,1 18 10 - - E 1010,7 10
18.06.2019 22:00:00 17,7 13,1 22 12 32 18 ENE 1011,0 10
18.06.2019 21:00:00 17,8 13,9 22 12 32 18 NE 1011,3 10
18.06.2019 20:00:00 18,8 10,8 18 10 - - NE 1012,1 10
18.06.2019 19:00:00 19,5 13,2 24 13 32 18 NE 1012,0 10
18.06.2019 18:00:00 19,3 13,9 24 13 36 19 NE 1012,5 10
18.06.2019 17:00:00 20,1 14,3 24 13 - - NNE 1013,1 10
18.06.2019 16:00:00 21,0 14,3 21 11 25 14 NNE 1013,6 10
18.06.2019 15:00:00 22,0 14,5 18 10 25 14 N 1014,3 10
18.06.2019 14:00:00 22,1 14,0 13 7 - - NNE 1014,8 10
18.06.2019 13:00:00 20,9 13,7 11 6 18 10 N 1015,3 10
18.06.2019 12:00:00 19,2 13,5 11 6 14 8 N 1015,8 10
18.06.2019 11:00:00 17,9 13,2 9 5 - - NNW 1016,1 10
18.06.2019 10:00:00 18,2 12,6 4 2 7 4 - 1016,0 10
18.06.2019 09:00:00 16,8 11,5 4 2 7 4 - 1016,4 10
18.06.2019 08:00:00 15,6 12,0 5 3 - - NNW 1016,4 10
18.06.2019 07:00:00 12,1 10,9 4 2 4 2 - 1016,5 8
18.06.2019 06:00:00 10,6 9,3 2 1 4 2 - 1016,4 8
18.06.2019 05:00:00 11,5 10,3 2 1 - - - 1016,7 10
18.06.2019 04:00:00 11,1 9,7 4 2 4 2 SW 1017,0 10
18.06.2019 03:00:00 11,9 10,0 4 2 7 4 SSW 1017,3 10
18.06.2019 02:00:00 13,1 10,2 5 3 - - W 1017,9 10
18.06.2019 01:00:00 12,6 10,2 5 3 11 6 W 1018,1 10
18.06.2019 00:00:00 14,1 10,5 2 1 7 4 - 1017,8 10
17.06.2019 23:00:00 15,1 10,7 4 2 - - - 1017,8 10
17.06.2019 22:00:00 15,6 11,2 5 3 14 8 NNW 1017,9 10
17.06.2019 21:00:00 16,4 11,7 8 4 14 8 NNW 1018,0 10
17.06.2019 20:00:00 17,7 11,5 8 4 - - NNW 1018,2 10
17.06.2019 19:00:00 17,9 12,3 9 5 18 10 NNW 1018,6 10
17.06.2019 18:00:00 18,1 12,3 13 7 18 10 NW 1018,8 10
17.06.2019 17:00:00 18,6 13,0 15 8 - - NW 1019,1 10
17.06.2019 16:00:00 18,7 13,5 15 8 22 12 NW 1019,4 10
17.06.2019 15:00:00 18,4 14,0 15 8 22 12 NW 1019,6 10
17.06.2019 14:00:00 18,5 14,1 15 8 - - NW 1019,7 10
17.06.2019 13:00:00 22,2 12,8 18 10 29 16 SSW 1019,7 10
17.06.2019 12:00:00 20,5 12,3 18 10 25 14 SW 1020,1 25
17.06.2019 11:00:00 21,0 12,6 15 8 - - S 1020,2 10
17.06.2019 10:00:00 20,0 13,8 13 7 22 12 S 1020,4 10
17.06.2019 09:00:00 17,9 13,9 11 6 18 10 S 1020,5 10
17.06.2019 08:00:00 15,2 12,9 7 4 - - SSE 1020,3 18
17.06.2019 07:00:00 12,5 11,0 4 2 7 4 ESE 1020,3 10
17.06.2019 06:00:00 10,8 9,5 5 3 11 6 ESE 1020,1 10
17.06.2019 05:00:00 10,1 8,9 8 4 - - ESE 1020,2 10
17.06.2019 04:00:00 10,8 9,3 4 2 7 4 ESE 1020,5 10
17.06.2019 03:00:00 10,7 9,4 8 4 7 4 SE 1020,9 10
17.06.2019 02:00:00 11,1 9,4 7 4 - - SE 1021,1 20
17.06.2019 01:00:00 12,0 9,9 4 2 7 4 SE 1021,1 10
17.06.2019 00:00:00 12,6 10,7 5 3 7 4 S 1021,3 10
16.06.2019 23:00:00 13,8 11,4 5 3 - - SW 1021,1 10
16.06.2019 22:00:00 14,8 11,7 11 6 22 12 W 1021,0 10
16.06.2019 21:00:00 16,8 12,1 15 8 29 16 W 1021,0 10
16.06.2019 20:00:00 17,5 12,5 21 11 - - W 1021,0 10
16.06.2019 19:00:00 17,9 12,8 26 14 43 23 W 1020,7 10
16.06.2019 18:00:00 18,3 13,0 31 17 47 25 W 1020,6 10
16.06.2019 17:00:00 17,5 12,9 22 12 - - WNW 1020,6 10
16.06.2019 16:00:00 18,8 13,1 16 9 32 18 WNW 1020,5 10
16.06.2019 15:00:00 18,3 12,1 18 10 40 21 W 1020,4 10
16.06.2019 14:00:00 20,3 11,8 24 13 - - SW 1020,0 10
16.06.2019 13:00:00 18,8 12,1 26 14 36 19 SW 1020,1 10
16.06.2019 12:00:00 18,6 12,3 21 11 32 18 SW 1020,1 10
16.06.2019 11:00:00 16,6 11,0 21 11 - - SW 1019,7 10
16.06.2019 10:00:00 16,0 12,0 18 10 25 14 SW 1019,6 10
16.06.2019 09:00:00 15,5 11,7 18 10 29 16 SW 1019,2 10
16.06.2019 08:00:00 13,7 11,8 16 9 - - SSW 1018,6 10
16.06.2019 07:00:00 13,4 11,3 9 5 14 8 S 1018,0 10
16.06.2019 06:00:00 13,0 10,8 8 4 18 10 S 1017,9 10
16.06.2019 05:00:00 12,8 10,7 8 4 - - S 1017,4 10
16.06.2019 04:00:00 12,7 10,5 11 6 18 10 SSW 1017,3 10
16.06.2019 03:00:00 12,9 10,4 9 5 11 6 S 1017,4 10
16.06.2019 02:00:00 12,9 10,6 9 5 - - SSW 1017,1 10
16.06.2019 01:00:00 15,0 11,4 11 6 22 12 SSW 1016,8 10
16.06.2019 00:00:00 14,0 11,5 8 4 11 6 SE 1016,6 10
15.06.2019 23:00:00 14,0 10,7 4 2 - - - 1016,7 10
15.06.2019 22:00:00 15,9 11,2 4 2 7 4 - 1016,4 10
15.06.2019 21:00:00 16,2 10,9 5 3 18 10 WSW 1016,2 10
15.06.2019 20:00:00 17,1 11,0 8 4 - - NW 1016,1 10
15.06.2019 19:00:00 17,2 11,0 9 5 18 10 NW 1016,2 10
15.06.2019 18:00:00 17,6 10,4 9 5 18 10 NW 1016,3 10
15.06.2019 17:00:00 17,1 8,2 11 6 - - NNW 1016,2 10
15.06.2019 16:00:00 18,2 9,9 8 4 18 10 NW 1016,0 10
15.06.2019 15:00:00 16,3 11,5 11 6 18 10 NNW 1016,2 10
15.06.2019 14:00:00 16,9 12,1 9 5 - - NNW 1015,8 10
15.06.2019 13:00:00 17,0 11,6 11 6 22 12 NW 1015,3 10
15.06.2019 12:00:00 16,4 10,7 9 5 18 10 NW 1014,9 10
15.06.2019 11:00:00 16,3 11,5 11 6 - - W 1014,5 10
15.06.2019 10:00:00 15,5 11,4 9 5 14 8 W 1013,9 10
15.06.2019 09:00:00 15,2 11,5 11 6 14 8 WNW 1013,3 25
15.06.2019 08:00:00 14,4 11,6 9 5 - - WNW 1012,7 10
15.06.2019 07:00:00 13,4 11,6 2 1 14 8 - 1012,4 10
15.06.2019 06:00:00 13,4 10,5 9 5 18 10 E 1012,6 10
15.06.2019 05:00:00 13,5 10,3 9 5 - - E 1012,6 10
15.06.2019 04:00:00 14,0 11,7 7 4 11 6 SE 1012,5 20
15.06.2019 03:00:00 15,5 10,9 8 4 11 6 ENE 1012,6 10
15.06.2019 02:00:00 14,4 10,7 7 4 - - NE 1012,5 25
15.06.2019 01:00:00 14,8 10,1 11 6 18 10 ENE 1013,2 10
15.06.2019 00:00:00 15,2 9,5 8 4 11 6 NE 1013,5 10
14.06.2019 23:00:00 14,7 9,3 9 5 - - NNE 1013,9 10
14.06.2019 22:00:00 15,2 9,3 9 5 14 8 ENE 1014,1 10
14.06.2019 21:00:00 15,6 8,8 9 5 18 10 N 1013,9 10
14.06.2019 20:00:00 15,8 8,8 11 6 - - N 1013,8 10
14.06.2019 19:00:00 15,9 9,5 15 8 22 12 NW 1013,6 10
14.06.2019 18:00:00 16,7 10,1 15 8 25 14 NNW 1013,7 10
14.06.2019 17:00:00 17,5 12,1 16 9 - - NNW 1013,8 10
14.06.2019 16:00:00 16,9 11,8 15 8 25 14 NW 1014,4 10
14.06.2019 15:00:00 16,8 11,3 16 9 36 19 WNW 1014,6 10
14.06.2019 14:00:00 20,0 10,2 24 13 - - SW 1014,1 10
14.06.2019 13:00:00 19,1 10,8 22 12 36 19 SSW 1013,9 10
14.06.2019 12:00:00 18,6 12,0 18 10 32 18 SSW 1013,5 10
14.06.2019 11:00:00 17,1 12,1 15 8 - - SSW 1013,1 10
14.06.2019 10:00:00 14,7 11,9 9 5 18 10 S 1013,0 10
14.06.2019 09:00:00 13,1 11,2 9 5 14 8 S 1013,1 10
14.06.2019 08:00:00 11,7 9,9 4 2 - - - 1012,6 10
14.06.2019 07:00:00 10,5 9,0 9 5 14 8 SSE 1012,4 10
14.06.2019 06:00:00 9,4 7,7 5 3 14 8 S 1012,4 10
14.06.2019 05:00:00 9,0 8,0 9 5 - - SSE - 10
14.06.2019 04:00:00 9,2 7,8 13 7 14 8 SSE 1011,8 10
14.06.2019 03:00:00 10,1 8,6 13 7 18 10 SSE 1012,0 10
14.06.2019 02:00:00 10,4 9,0 14 8 - - SSE 1012,1 25
14.06.2019 01:00:00 11,4 9,9 9 5 14 8 S 1012,2 10
14.06.2019 00:00:00 12,0 10,2 11 6 18 10 S 1012,1 25
13.06.2019 23:00:00 12,8 10,7 11 6 - - S 1011,7 10
13.06.2019 22:00:00 13,3 10,9 15 8 29 16 SSW 1011,0 10
13.06.2019 21:00:00 13,9 11,0 15 8 29 16 S 1010,6 10
13.06.2019 20:00:00 15,2 11,6 16 9 - - S 1010,1 10
13.06.2019 19:00:00 14,4 10,6 15 8 32 18 SSW 1009,7 10
13.06.2019 18:00:00 14,3 11,0 24 13 43 23 SSW 1009,8 10
13.06.2019 17:00:00 12,2 10,3 28 15 - - WSW 1010,0 7
13.06.2019 16:00:00 16,0 10,5 28 15 47 25 SSW 1009,4 10
13.06.2019 15:00:00 15,1 10,8 24 13 50 27 S 1009,4 10
13.06.2019 14:00:00 15,4 10,8 26 14 - - S 1009,5 10
13.06.2019 13:00:00 15,2 10,9 22 12 43 23 S 1009,7 10
13.06.2019 12:00:00 14,8 10,4 26 14 43 23 SSW 1009,7 10
13.06.2019 11:00:00 13,9 10,1 28 15 - - SSW 1009,7 10

tt = Température de l'air
td = dewpoint
ff = Vitesse du vent
fx = gusts
dd = Direction du vent
ppp = reduced air pressure
vv = visibility

stations d'obs. à proximité